Location: Cantaing
(50.1487°N, 3.1675°E)
Time: 06:55:46
(UTC+00:00)

Cosmos 1269 Rocket - Pass Details

Date: 14 January 2026
Orbit: 769 x 775 km, 74.1° (Epoch: 10 February)

Event Time Altitude Azimuth Distance (km) Brightness Sun altitude
Rises 06:52:13 0° 222° (SW) 3,242 7.1 -7.7°
Reaches altitude 10° 06:54:41 10° 229° (SW) 2,319 6.3 -7.4°
Maximum altitude 06:59:43 45° 302° (WNW) 1,058 4.3 -6.6°
Drops below altitude 10° 07:04:48 10° 14° (NNE) 2,335 6.4 -5.9°
Sets 07:07:18 0° 21° (NNE) 3,266 7.2 -5.6°
